[[{"header":{"parameterUnit":"m.s-1","parameterCategory":2,"la1":30.2991,"la2":30.254,"lo1":-89.0895,"lo2":-89.0444,"dy":0.0017,"dx":0.0017,"nx":28,"ny":28,"refTime":"2024-04-28T09:00:00:Z","depth":"0","parameterNumber":2,"parameterNumberName":"U-component_of_CURRENTS"},"data":[0,0,0,0,0,0,0,0,0,0,0,0,0,0,0,0,0,0,0,0,0,0,0,0,0,0,0,0,0,0,0,0,0,0,0,0,0,0,0,0,0,0,0,0,0,0,0,0,0,0,0,0,0,0,0,0,0,0,-0.2073,-0.2073,0,-0.2051,-0.2051,-0.205,-0.2049,-0.205,-0.205,-0.2051,-0.1999,-0.1997,-0.1995,0,0,0,0,0,0,0,0,0,0,0,0,0,-0.2014,-0.2015,-0.2073,-0.2073,-0.2073,-0.2051,-0.2051,-0.205,-0.2049,-0.205,-0.205,-0.2051,-0.2,-0.1997,-0.1995,0,0,0,0,0,0,0,0,0,0,0,0,0,-0.2017,-0.2016,-0.2073,-0.2073,-0.2073,-0.2052,-0.2051,-0.205,-0.2049,-0.205,-0.2051,-0.2051,-0.2,-0.1997,-0.1994,-0.1956,0,0,-0.1985,-0.1984,0,0,0,0,0,0,0,0,-0.2017,-0.2018,-0.2073,-0.2073,-0.2073,-0.2058,-0.2011,-0.2019,-0.2048,-0.2053,-0.2051,-0.2052,-0.2018,-0.2014,-0.2001,-0.1954,-0.1952,-0.1985,-0.1983,-0.1982,-0.1981,0,0,0,0,0,0,0,-0.2016,-0.2019,-0.206,-0.2073,-0.2073,-0.2041,-0.2043,-0.2012,-0.2026,-0.2053,-0.2054,-0.2058,-0.2017,-0.2004,-0.2,-0.1951,-0.1985,-0.1982,-0.1981,-0.1979,-0.1885,-0.1884,0,0,0,0,0,0,-0.2033,-0.2019,-0.2061,-0.206,-0.2052,-0.2042,-0.2044,-0.2058,-0.2027,-0.2025,-0.2057,-0.2058,-0.2009,-0.2004,-0.1998,-0.2024,-0.1982,-0.1979,-0.1977,-0.1885,-0.1885,-0.1884,0,0,0,0,0,0,-0.2031,-0.2037,-0.2062,-0.2041,-0.2043,-0.2043,-0.2058,-0.2057,-0.2054,-0.2032,-0.2028,-0.2058,-0.2009,-0.2003,-0.1973,-0.2019,-0.1978,-0.1975,-0.1886,-0.1885,-0.1884,-0.2028,0,0,0,0,0,0,-0.203,-0.2037,-0.2045,-0.2043,-0.2045,-0.206,-0.2058,-0.2056,-0.2057,-0.2058,-0.203,-0.2026,-0.201,-0.1977,-0.197,-0.2014,-0.1973,-0.1887,-0.1886,-0.1884,-0.2024,-0.2032,-0.2039,0,0,0,0,0,-0.2028,-0.204,-0.2046,-0.205,-0.206,-0.2061,-0.2058,-0.2057,-0.2056,-0.2056,-0.2032,-0.2028,-0.1964,-0.1974,-0.1965,-0.2011,-0.1888,-0.1886,-0.1885,-0.2021,-0.2031,-0.2039,0,0,0,0,0,0,-0.2017,-0.2042,-0.2048,-0.2067,-0.2069,-0.2062,-0.2061,-0.2059,-0.2038,-0.2038,-0.2014,-0.2007,-0.1999,-0.1962,-0.1974,-0.197,-0.1926,-0.1923,-0.2033,-0.2041,-0.2049,-0.2132,-0.197,0,0,0,0,0,-0.202,-0.2037,-0.205,-0.2063,-0.2068,-0.2063,-0.2061,-0.2064,-0.205,-0.2043,-0.2024,-0.1996,-0.1981,-0.1979,-0.1944,-0.1941,-0.1955,-0.1958,-0.1966,-0.1973,-0.2029,-0.2063,-0.2081,-0.1878,-0.1878,-0.1878,0,0,-0.2018,-0.2034,-0.2043,-0.2061,-0.2061,-0.2095,-0.2064,-0.2068,-0.2111,-0.2038,-0.2066,-0.2013,-0.1977,-0.1981,-0.1975,-0.1965,-0.2032,-0.1971,-0.1978,-0.2031,-0.2064,-0.2084,-0.2103,-0.1877,-0.1877,-0.1878,0,0,-0.2028,-0.2039,-0.206,-0.2078,-0.2092,-0.2102,-0.211,-0.2108,-0.2121,-0.2122,-0.2092,-0.2078,-0.2029,-0.2044,-0.204,-0.206,-0.2059,-0.2023,-0.2153,-0.2184,-0.2204,-0.2221,-0.2265,-0.2285,-0.2042,-0.2042,-0.2042,0,-0.2024,-0.2075,-0.2062,-0.2099,-0.214,-0.2118,-0.2174,-0.2181,-0.2171,-0.2201,-0.2147,-0.2124,-0.2083,-0.2145,-0.2152,-0.2092,-0.2101,-0.2135,-0.2203,-0.2221,-0.2236,-0.2277,-0.2297,-0.2049,-0.2048,-0.2047,-0.2047,0,-0.206,-0.2115,-0.2129,-0.2191,-0.2219,-0.2257,-0.2289,-0.231,-0.231,-0.2323,-0.235,-0.2283,-0.2283,-0.2257,-0.2218,-0.2306,-0.2274,-0.2205,-0.2205,-0.2267,-0.2303,-0.2322,-0.2058,-0.2056,-0.2054,-0.2052,0,0,-0.2033,-0.214,-0.2148,-0.2223,-0.2286,-0.2319,-0.24,-0.248,-0.2548,-0.2516,-0.2601,-0.2565,-0.2518,-0.2509,-0.2448,-0.2485,-0.2586,-0.2406,-0.2404,-0.2494,-0.2673,-0.2675,-0.2695,-0.2526,-0.253,-0.2533,-0.2657,0,-0.2079,-0.2191,-0.2232,-0.2363,-0.2441,-0.2485,-0.257,-0.2633,-0.2658,-0.2716,-0.2694,-0.271,-0.2619,-0.2603,-0.2634,-0.2577,-0.2642,-0.2561,-0.2562,-0.2564,-0.2595,-0.272,-0.2701,-0.2812,-0.2675,-0.2678,-0.268,0,-0.2106,-0.2201,-0.2335,-0.2508,-0.2542,-0.2606,-0.2759,-0.2824,-0.2907,-0.2922,-0.295,-0.2905,-0.2951,-0.2837,-0.287,-0.2815,-0.2785,-0.2751,-0.2752,-0.2734,-0.2603,-0.2721,-0.2851,-0.2851,-0.2709,-0.2707,-0.2705,0,-0.2116,-0.2276,-0.2401,-0.2456,-0.2625,-0.2699,-0.2775,-0.2879,-0.2956,-0.3038,-0.3078,-0.311,-0.3096,-0.3087,-0.2996,-0.2941,-0.3028,-0.2928,-0.2929,-0.2927,-0.2908,-0.2899,-0.3085,-0.3012,-0.3011,-0.3011,-0.3011,0,-0.2168,-0.2269,-0.2413,-0.2489,-0.2643,-0.2732,-0.2872,-0.2951,-0.3059,-0.3152,-0.316,-0.3213,-0.3155,-0.3166,-0.3095,-0.3086,-0.3107,-0.3022,-0.2986,-0.2951,-0.2944,-0.2934,-0.2921,-0.3016,-0.3015,-0.3014,-0.3013,0,-0.2161,-0.2256,-0.2413,-0.2598,-0.2651,-0.2748,-0.2912,-0.3004,-0.3102,-0.3219,-0.3246,-0.3308,-0.3325,-0.3285,-0.3264,-0.3207,-0.3182,-0.3183,-0.3157,-0.3118,-0.3114,-0.3107,-0.324,-0.3178,-0.3242,-0.3243,-0.3244,0,-0.2166,-0.2245,-0.2454,-0.253,-0.2611,-0.2754,-0.2847,-0.2998,-0.3086,-0.3263,-0.3311,-0.3386,-0.3414,-0.3422,-0.336,-0.3328,-0.3246,-0.329,-0.3198,-0.3195,-0.3158,-0.31,-0.3031,-0.3221,-0.3221,-0.3222,-0.3223,0,-0.2173,-0.2236,-0.2349,-0.2518,-0.2632,-0.2776,-0.2908,-0.2994,-0.3161,-0.326,-0.3385,-0.3434,-0.3486,-0.3466,-0.344,-0.3375,-0.3271,-0.3302,-0.3308,-0.3215,-0.3157,-0.3049,-0.3059,-0.3228,-0.3227,-0.3227,-0.3227,-0.3226,-0.2129,-0.2203,-0.2333,-0.249,-0.2618,-0.2752,-0.2803,-0.2951,-0.3081,-0.3193,-0.334,-0.3402,-0.3515,-0.3482,-0.3447,-0.3407,-0.3324,-0.3319,-0.333,-0.3284,-0.3194,-0.3241,-0.3347,-0.3348,-0.3348,-0.3348,-0.3348,0,-0.2082,-0.2171,-0.2297,-0.2467,-0.2567,-0.2666,-0.2804,-0.2799,-0.2881,-0.3061,-0.3154,-0.3378,-0.3437,-0.3506,-0.3561,-0.3475,-0.3339,-0.3377,-0.3296,-0.3231,-0.33,-0.3265,-0.3347,-0.3347,-0.3347,-0.3347,-0.3347,-0.3347,-0.2051,-0.2141,-0.223,-0.2367,-0.2464,-0.2501,-0.2539,-0.2533,-0.26,-0.269,-0.2866,-0.3037,-0.3211,-0.3693,-0.3703,-0.356,-0.3429,-0.3355,-0.33,-0.3365,-0.3359,-0.3353,-0.332,-0.3412,-0.3412,-0.3159,-0.3158,-0.3157]},{"header":{"parameterUnit":"m.s-1","parameterCategory":2,"la1":30.2991,"la2":30.254,"lo1":-89.0895,"lo2":-89.0444,"dy":0.0017,"dx":0.0017,"nx":28,"ny":28,"refTime":"2024-04-28T09:00:00:Z","depth":"0","parameterNumber":3,"parameterNumberName":"V-component_of_CURRENTS"},"data":[0,0,0,0,0,0,0,0,0,0,0,0,0,0,0,0,0,0,0,0,0,0,0,0,0,0,0,0,0,0,0,0,0,0,0,0,0,0,0,0,0,0,0,0,0,0,0,0,0,0,0,0,0,0,0,0,0,0,0.0079,0.008,0,0.0194,0.0195,0.0197,0.0257,0.0257,0.0257,0.0257,0.0366,0.0369,0.0372,0,0,0,0,0,0,0,0,0,0,0,0,0,-0.0019,-0.0018,0.0079,0.008,0.0082,0.0194,0.0195,0.0197,0.0257,0.0257,0.0257,0.0257,0.0366,0.0369,0.0372,0,0,0,0,0,0,0,0,0,0,0,0,0,0.0053,-0.0017,0.0079,0.0125,0.013,0.0193,0.0195,0.0197,0.0257,0.0257,0.0257,0.0257,0.0364,0.0369,0.0373,0.0397,0,0,0.0386,0.0388,0,0,0,0,0,0,0,0,0.0049,0.0056,0.0117,0.0122,0.0128,0.0211,0.0201,0.0264,0.0257,0.0209,0.0257,0.0257,0.0314,0.0322,0.0344,0.0402,0.0406,0.0386,0.0389,0.0391,0.0392,0,0,0,0,0,0,0,0.0043,0.0052,0.0125,0.0118,0.0125,0.0164,0.0174,0.0214,0.0259,0.0213,0.0218,0.023,0.0317,0.034,0.0347,0.0408,0.0386,0.039,0.0392,0.0394,0.0509,0.051,0,0,0,0,0,0,0.0025,0.0047,0.0121,0.0128,0.0088,0.0165,0.0176,0.0184,0.0259,0.0271,0.023,0.0233,0.0332,0.0342,0.0351,0.0403,0.039,0.0394,0.0397,0.0509,0.0509,0.051,0,0,0,0,0,0,0.0023,0.003,0.0116,0.009,0.0104,0.0166,0.0176,0.0187,0.0211,0.0272,0.0284,0.0243,0.0333,0.0345,0.0388,0.0407,0.0396,0.04,0.0508,0.0509,0.051,0.0495,0,0,0,0,0,0,0.0019,0.0029,0.0026,0.0089,0.0105,0.0147,0.0176,0.0189,0.0218,0.0223,0.0287,0.0297,0.0334,0.0382,0.0393,0.0413,0.0404,0.0507,0.0508,0.0509,0.0495,0.0495,0.0495,0,0,0,0,0,0.0015,0.0008,0.0025,0.0034,0.0099,0.0147,0.0159,0.0205,0.0218,0.0227,0.0273,0.0295,0.0396,0.0386,0.0398,0.042,0.0507,0.0508,0.0509,0.0494,0.0495,0.0495,0,0,0,0,0,0,-0.0041,0.0015,0.0035,0.0043,0.009,0.0157,0.0168,0.0201,0.0245,0.0247,0.0303,0.0317,0.0362,0.0389,0.0377,0.0455,0.0455,0.0459,0.0439,0.044,0.044,0.0448,0.0407,0,0,0,0,0,-0.0055,-0.0044,0.0018,0.0023,0.0044,0.0105,0.0129,0.0162,0.0211,0.0231,0.0278,0.0327,0.0377,0.0405,0.0446,0.0489,0.0533,0.051,0.051,0.051,0.0525,0.0609,0.0619,0.0514,0.0514,0.0514,0,0,-0.0078,-0.0044,-0.004,0.0012,0.005,0.0081,0.012,0.0152,0.0187,0.0235,0.0285,0.0327,0.0387,0.0437,0.046,0.0463,0.056,0.0512,0.0512,0.0527,0.0612,0.0622,0.0632,0.0514,0.0514,0.0514,0,0,-0.0112,-0.0086,-0.0083,-0.0047,0.0009,0.0054,0.0061,0.0129,0.0168,0.0219,0.0267,0.0327,0.0387,0.0452,0.0488,0.0516,0.0556,0.0514,0.0531,0.0612,0.0622,0.0631,0.0685,0.07,0.0519,0.0519,0.0519,0,-0.0143,-0.0129,-0.0076,-0.0058,-0.0034,0.0038,0.0051,0.0108,0.0183,0.0221,0.0227,0.0357,0.0405,0.0497,0.0508,0.0522,0.0556,0.0523,0.0613,0.0624,0.0633,0.0688,0.0704,0.0518,0.0518,0.0518,0.0518,0,-0.0164,-0.0154,-0.015,-0.0101,-0.0064,-0.0048,0.0038,0.008,0.013,0.0197,0.0288,0.0368,0.0444,0.0473,0.0502,0.0596,0.0593,0.06,0.0613,0.0643,0.0698,0.0715,0.0517,0.0518,0.0518,0.0518,0,0,-0.0237,-0.018,-0.0179,-0.0175,-0.0092,-0.0072,-0.0003,0.0079,0.0119,0.0217,0.0283,0.04,0.0449,0.0494,0.055,0.0633,0.073,0.064,0.0645,0.0695,0.0889,0.0947,0.0971,0.0746,0.0749,0.0751,0.0894,0,-0.0274,-0.0279,-0.0216,-0.0212,-0.0213,-0.012,-0.0066,0.0024,0.0108,0.0191,0.0325,0.0398,0.0458,0.0485,0.0587,0.0692,0.0776,0.069,0.0853,0.0858,0.0907,0.0994,0.1092,0.1234,0.0911,0.0914,0.0916,0,-0.0308,-0.0316,-0.0327,-0.0289,-0.0276,-0.0248,-0.0165,-0.0107,0.005,0.0119,0.0246,0.0344,0.0503,0.0525,0.0762,0.0698,0.0793,0.0879,0.0887,0.0964,0.0949,0.1155,0.1277,0.1544,0.0942,0.094,0.0938,0,-0.0407,-0.0386,-0.0408,-0.0397,-0.0334,-0.0313,-0.0272,-0.0139,-0.0092,0.0069,0.0123,0.0328,0.042,0.0593,0.0792,0.077,0.1038,0.1026,0.1174,0.1177,0.1309,0.132,0.1716,0.1189,0.1188,0.1188,0.1188,0,-0.0473,-0.0491,-0.0467,-0.0486,-0.0516,-0.0422,-0.0407,-0.0327,-0.0202,-0.0142,0.0065,0.0168,0.0441,0.0632,0.0795,0.1057,0.1047,0.1211,0.124,0.1303,0.1311,0.1585,0.1664,0.1193,0.1192,0.1191,0.119,0,-0.0568,-0.0542,-0.0587,-0.0568,-0.0565,-0.0594,-0.0536,-0.0521,-0.0373,-0.0288,-0.024,0.0057,0.0338,0.0607,0.0904,0.1061,0.1446,0.1368,0.1416,0.145,0.1834,0.1904,0.2233,0.2343,0.1571,0.1574,0.1576,0,-0.0611,-0.0646,-0.0689,-0.0736,-0.0734,-0.0753,-0.0763,-0.0639,-0.0596,-0.0349,-0.0307,0.0,0.0256,0.0748,0.1103,0.1444,0.1579,0.1682,0.168,0.1919,0.2018,0.2016,0.2083,0.1839,0.1843,0.1846,0.1849,0,-0.0717,-0.0732,-0.0783,-0.0903,-0.0947,-0.098,-0.0962,-0.0941,-0.0766,-0.0631,-0.0377,-0.0145,0.0408,0.0938,0.1396,0.1571,0.1886,0.1761,0.2028,0.23,0.2309,0.2405,0.1649,0.188,0.1877,0.1875,0.1873,0.1872,-0.0801,-0.0885,-0.0968,-0.1081,-0.1142,-0.1182,-0.1189,-0.11,-0.1,-0.073,-0.0462,-0.0027,0.0793,0.1519,0.1746,0.2303,0.2155,0.2445,0.2516,0.2496,0.2614,0.1912,0.2156,0.2155,0.2153,0.2152,0.2151,0,-0.0914,-0.1011,-0.1138,-0.126,-0.1366,-0.1342,-0.1307,-0.1246,-0.111,-0.0758,-0.0439,0.0535,0.1311,0.1993,0.2828,0.3089,0.3077,0.3175,0.3248,0.3282,0.2719,0.2747,0.3109,0.3109,0.3109,0.3108,0.3108,0.3108,-0.0979,-0.1138,-0.1225,-0.1446,-0.1518,-0.1566,-0.1539,-0.1383,-0.1109,-0.0503,0.0081,0.0566,0.1626,0.3083,0.3824,0.3821,0.4022,0.3945,0.4024,0.371,0.3648,0.3589,0.3643,0.4186,0.4187,0.4573,0.4578,0.4582]}],[{"header":{"parameterUnit":"m.s-1","parameterCategory":2,"la1":30.2991,"la2":30.254,"lo1":-89.0895,"lo2":-89.0444,"dy":0.0017,"dx":0.0017,"nx":28,"ny":28,"refTime":"2024-04-28T09:00:00:Z","depth":"2","parameterNumber":2,"parameterNumberName":"U-component_of_CURRENTS"},"data":[0,0,0,0,0,0,0,0,0,0,0,0,0,0,0,0,0,0,0,0,0,0,0,0,0,0,0,0,0,0,0,0,0,0,0,0,0,0,0,0,0,0,0,0,0,0,0,0,0,0,0,0,0,0,0,0,0,0,-0.2026,-0.2026,0,-0.2004,-0.2003,-0.2003,-0.2002,-0.2003,-0.2003,-0.2004,-0.1953,-0.1951,-0.1949,0,0,0,0,0,0,0,0,0,0,0,0,0,-0.1967,-0.1968,-0.2025,-0.2026,-0.2026,-0.2004,-0.2003,-0.2003,-0.2002,-0.2003,-0.2004,-0.2004,-0.1953,-0.1951,-0.1948,0,0,0,0,0,0,0,0,0,0,0,0,0,-0.197,-0.1969,-0.2025,-0.2026,-0.2026,-0.2004,-0.2003,-0.2002,-0.2002,-0.2003,-0.2004,-0.2005,-0.1954,-0.1951,-0.1948,-0.1909,0,0,-0.1939,-0.1938,0,0,0,0,0,0,0,0,-0.197,-0.1971,-0.2026,-0.2026,-0.2026,-0.2011,-0.1964,-0.1971,-0.2002,-0.2006,-0.2004,-0.2005,-0.1971,-0.1967,-0.1955,-0.1907,-0.1905,-0.1939,-0.1937,-0.1936,-0.1935,0,0,0,0,0,0,0,-0.197,-0.1972,-0.2012,-0.2026,-0.2026,-0.1994,-0.1996,-0.1965,-0.1979,-0.2006,-0.2007,-0.2012,-0.1971,-0.1958,-0.1954,-0.1904,-0.1939,-0.1936,-0.1934,-0.1933,-0.1838,-0.1837,0,0,0,0,0,0,-0.1986,-0.1972,-0.2013,-0.2012,-0.2005,-0.1995,-0.1997,-0.2011,-0.198,-0.1978,-0.2011,-0.2012,-0.1962,-0.1957,-0.1952,-0.1977,-0.1936,-0.1933,-0.1931,-0.1838,-0.1837,-0.1837,0,0,0,0,0,0,-0.1985,-0.199,-0.2014,-0.1994,-0.1996,-0.1996,-0.2011,-0.201,-0.2008,-0.1985,-0.1982,-0.2012,-0.1963,-0.1956,-0.1926,-0.1973,-0.1931,-0.1929,-0.1839,-0.1838,-0.1837,-0.1981,0,0,0,0,0,0,-0.1983,-0.199,-0.1998,-0.1996,-0.1998,-0.2013,-0.2011,-0.2009,-0.2011,-0.2012,-0.1984,-0.198,-0.1963,-0.1931,-0.1923,-0.1968,-0.1926,-0.184,-0.1839,-0.1837,-0.1977,-0.1985,-0.1992,0,0,0,0,0,-0.1981,-0.1994,-0.1999,-0.2004,-0.2013,-0.2013,-0.201,-0.201,-0.201,-0.201,-0.1985,-0.1981,-0.1917,-0.1927,-0.1919,-0.1964,-0.1841,-0.1839,-0.1838,-0.1974,-0.1984,-0.1992,0,0,0,0,0,0,-0.1971,-0.1995,-0.2001,-0.202,-0.2023,-0.2015,-0.2014,-0.2012,-0.1992,-0.1992,-0.1967,-0.1961,-0.1952,-0.1916,-0.1928,-0.1923,-0.1879,-0.1876,-0.1986,-0.1995,-0.2002,-0.2085,-0.1924,0,0,0,0,0,-0.1974,-0.1991,-0.2004,-0.2017,-0.2022,-0.2017,-0.2015,-0.2017,-0.2004,-0.1997,-0.1978,-0.195,-0.1934,-0.1932,-0.1897,-0.1894,-0.1907,-0.1911,-0.1919,-0.1926,-0.1981,-0.2014,-0.2033,-0.1831,-0.1831,-0.1831,0,0,-0.1972,-0.1988,-0.1997,-0.2015,-0.2015,-0.2048,-0.2017,-0.2022,-0.2065,-0.1992,-0.2019,-0.1967,-0.193,-0.1934,-0.1928,-0.1918,-0.1984,-0.1923,-0.1931,-0.1983,-0.2015,-0.2036,-0.2054,-0.183,-0.183,-0.1831,0,0,-0.1983,-0.1994,-0.2015,-0.2032,-0.2046,-0.2056,-0.2064,-0.2062,-0.2075,-0.2076,-0.2045,-0.2031,-0.1983,-0.1997,-0.1992,-0.2012,-0.2011,-0.1976,-0.2105,-0.2135,-0.2155,-0.2172,-0.2215,-0.2235,-0.1994,-0.1995,-0.1995,0,-0.198,-0.203,-0.2017,-0.2053,-0.2094,-0.2072,-0.2127,-0.2134,-0.2124,-0.2154,-0.21,-0.2077,-0.2036,-0.2097,-0.2104,-0.2044,-0.2053,-0.2087,-0.2155,-0.2172,-0.2187,-0.2227,-0.2248,-0.2001,-0.2001,-0.2,-0.1999,0,-0.2015,-0.2069,-0.2083,-0.2144,-0.2172,-0.221,-0.2241,-0.2262,-0.2263,-0.2275,-0.2302,-0.2235,-0.2234,-0.2208,-0.217,-0.2257,-0.2225,-0.2156,-0.2156,-0.2218,-0.2253,-0.2272,-0.2011,-0.2009,-0.2007,-0.2005,0,0,-0.199,-0.2095,-0.2103,-0.2176,-0.2239,-0.2271,-0.2352,-0.243,-0.2498,-0.2466,-0.2549,-0.2514,-0.2468,-0.2458,-0.2397,-0.2434,-0.2534,-0.2356,-0.2354,-0.2444,-0.2621,-0.2621,-0.2641,-0.2475,-0.2479,-0.2482,-0.2604,0,-0.2034,-0.2145,-0.2186,-0.2315,-0.2392,-0.2435,-0.2519,-0.2581,-0.2606,-0.2664,-0.2641,-0.2657,-0.2567,-0.2552,-0.2583,-0.2525,-0.259,-0.2509,-0.251,-0.2512,-0.2542,-0.2666,-0.2346,-0.2431,-0.2623,-0.2626,-0.2628,0,-0.2062,-0.2155,-0.2287,-0.2458,-0.2492,-0.2555,-0.2706,-0.277,-0.2852,-0.2868,-0.2895,-0.285,-0.2896,-0.2783,-0.2816,-0.2761,-0.2732,-0.2698,-0.2699,-0.2679,-0.255,-0.2394,-0.2458,-0.2659,-0.2657,-0.2654,-0.2652,0,-0.2072,-0.2229,-0.2352,-0.2407,-0.2574,-0.2647,-0.2722,-0.2825,-0.2901,-0.2983,-0.3022,-0.3053,-0.304,-0.3031,-0.294,-0.2886,-0.2972,-0.2873,-0.2873,-0.287,-0.2595,-0.2564,-0.2955,-0.2955,-0.2955,-0.2955,-0.2954,0,-0.2123,-0.2223,-0.2365,-0.244,-0.2592,-0.2679,-0.2818,-0.2896,-0.3003,-0.3094,-0.3103,-0.3155,-0.3098,-0.3109,-0.3039,-0.3029,-0.305,-0.2965,-0.2929,-0.2632,-0.2604,-0.2782,-0.276,-0.2959,-0.2958,-0.2957,-0.2957,0,-0.2116,-0.221,-0.2365,-0.2548,-0.2599,-0.2696,-0.2858,-0.2949,-0.3046,-0.3162,-0.3188,-0.325,-0.3266,-0.3227,-0.3206,-0.3148,-0.3133,-0.3123,-0.2798,-0.2726,-0.2994,-0.2977,-0.3177,-0.3179,-0.318,-0.3181,-0.3182,0,-0.2121,-0.2199,-0.2405,-0.248,-0.2561,-0.2702,-0.2794,-0.2943,-0.303,-0.3205,-0.3251,-0.3327,-0.3339,-0.3345,-0.3211,-0.3159,-0.3202,-0.2915,-0.2783,-0.3087,-0.303,-0.3011,-0.2993,-0.2452,-0.2447,-0.2442,-0.2439,0,-0.2129,-0.219,-0.2302,-0.247,-0.2582,-0.2723,-0.2854,-0.2938,-0.3103,-0.3179,-0.3301,-0.3335,-0.3326,-0.3112,-0.3054,-0.2967,-0.2898,-0.2839,-0.3229,-0.2469,-0.2419,-0.2358,-0.236,-0.2402,-0.2406,-0.2408,-0.241,-0.2412,-0.2085,-0.2158,-0.2286,-0.2442,-0.2568,-0.27,-0.275,-0.2789,-0.2883,-0.285,-0.3131,-0.3001,-0.302,-0.2717,-0.266,-0.2573,-0.2749,-0.2612,-0.2616,-0.2627,-0.2545,-0.2503,-0.2487,-0.2491,-0.2495,-0.2498,-0.2501,0,-0.2002,-0.2127,-0.2251,-0.242,-0.2434,-0.2616,-0.2751,-0.2584,-0.2498,-0.2521,-0.2507,-0.2297,-0.2237,-0.2263,-0.2061,-0.2125,-0.2005,-0.2079,-0.1873,-0.1911,-0.1945,-0.1821,-0.1574,-0.1572,-0.157,-0.1569,0,0,-0.1961,-0.2023,-0.211,-0.2175,-0.2316,-0.2191,-0.2224,-0.2005,-0.1863,-0.1615,-0.1565,-0.18,-0.2045,-0.1707,-0.1733,-0.1605,-0.1707,-0.153,-0.2252,-0.2029,-0.2059,-0.2227,-0.2079,0,0,0,0,0]},{"header":{"parameterUnit":"m.s-1","parameterCategory":2,"la1":30.2991,"la2":30.254,"lo1":-89.0895,"lo2":-89.0444,"dy":0.0017,"dx":0.0017,"nx":28,"ny":28,"refTime":"2024-04-28T09:00:00:Z","depth":"2","parameterNumber":3,"parameterNumberName":"V-component_of_CURRENTS"},"data":[0,0,0,0,0,0,0,0,0,0,0,0,0,0,0,0,0,0,0,0,0,0,0,0,0,0,0,0,0,0,0,0,0,0,0,0,0,0,0,0,0,0,0,0,0,0,0,0,0,0,0,0,0,0,0,0,0,0,0.006,0.0062,0,0.0175,0.0177,0.0178,0.0238,0.0238,0.0238,0.0238,0.0347,0.035,0.0353,0,0,0,0,0,0,0,0,0,0,0,0,0,-0.0038,-0.0037,0.006,0.0062,0.0063,0.0175,0.0177,0.0178,0.0238,0.0238,0.0238,0.0238,0.0346,0.0349,0.0353,0,0,0,0,0,0,0,0,0,0,0,0,0,0.0033,-0.0037,0.006,0.0106,0.0111,0.0175,0.0177,0.0179,0.0238,0.0238,0.0238,0.0238,0.0345,0.0349,0.0353,0.0378,0,0,0.0366,0.0368,0,0,0,0,0,0,0,0,0.0029,0.0037,0.0098,0.0103,0.0109,0.0192,0.0182,0.0245,0.0238,0.019,0.0238,0.0238,0.0294,0.0303,0.0325,0.0383,0.0387,0.0367,0.0369,0.0371,0.0372,0,0,0,0,0,0,0,0.0024,0.0033,0.0106,0.0099,0.0106,0.0145,0.0155,0.0195,0.024,0.0194,0.0199,0.0211,0.0298,0.032,0.0328,0.0389,0.0367,0.037,0.0373,0.0375,0.0491,0.0491,0,0,0,0,0,0,0.0006,0.0028,0.0102,0.0109,0.0068,0.0146,0.0157,0.0166,0.024,0.0252,0.0211,0.0214,0.0313,0.0323,0.0332,0.0384,0.0371,0.0375,0.0378,0.049,0.0491,0.0491,0,0,0,0,0,0,0.0003,0.0011,0.0098,0.0071,0.0085,0.0147,0.0157,0.0168,0.0192,0.0253,0.0264,0.0224,0.0314,0.0326,0.0369,0.0387,0.0377,0.0381,0.0489,0.049,0.0491,0.0475,0,0,0,0,0,0,-0.0,0.001,0.0007,0.007,0.0086,0.0129,0.0157,0.017,0.02,0.0204,0.0268,0.0278,0.0315,0.0363,0.0374,0.0393,0.0384,0.0489,0.049,0.0491,0.0475,0.0475,0.0476,0,0,0,0,0,-0.0004,-0.0011,0.0006,0.0015,0.0081,0.0129,0.0141,0.0186,0.02,0.0208,0.0254,0.0276,0.0377,0.0367,0.0379,0.04,0.0488,0.0489,0.0491,0.0475,0.0475,0.0476,0,0,0,0,0,0,-0.006,-0.0004,0.0016,0.0025,0.0071,0.0139,0.015,0.0182,0.0227,0.0229,0.0284,0.0298,0.0343,0.037,0.0358,0.0436,0.0436,0.044,0.042,0.0421,0.0421,0.0428,0.0388,0,0,0,0,0,-0.0073,-0.0062,-0.0,0.0005,0.0026,0.0087,0.0111,0.0144,0.0193,0.0213,0.026,0.0309,0.0359,0.0386,0.0428,0.047,0.0514,0.0491,0.0492,0.0492,0.0505,0.0588,0.0598,0.0495,0.0495,0.0495,0,0,-0.0096,-0.0062,-0.0058,-0.0006,0.0033,0.0063,0.0102,0.0135,0.0169,0.0217,0.0267,0.0309,0.0368,0.0418,0.0441,0.0444,0.054,0.0493,0.0493,0.0507,0.0591,0.0601,0.061,0.0496,0.0496,0.0496,0,0,-0.0129,-0.0104,-0.01,-0.0064,-0.0008,0.0037,0.0044,0.0112,0.0151,0.0201,0.0249,0.0309,0.0369,0.0433,0.0469,0.0497,0.0536,0.0496,0.0511,0.059,0.06,0.0609,0.0663,0.0677,0.05,0.05,0.05,0,-0.016,-0.0146,-0.0093,-0.0074,-0.0052,0.0021,0.0033,0.0091,0.0166,0.0203,0.0209,0.0338,0.0386,0.0477,0.0488,0.0502,0.0536,0.0503,0.0592,0.0602,0.0611,0.0665,0.068,0.0499,0.0499,0.0499,0.0499,0,-0.018,-0.0171,-0.0167,-0.0118,-0.0081,-0.0065,0.002,0.0062,0.0112,0.0178,0.0268,0.0348,0.0424,0.0452,0.0482,0.0574,0.0572,0.0579,0.0591,0.0621,0.0675,0.0691,0.0498,0.0499,0.0499,0.0499,0,0,-0.0252,-0.0196,-0.0196,-0.0192,-0.0109,-0.009,-0.0021,0.0059,0.0098,0.0196,0.0261,0.0378,0.0426,0.0471,0.0526,0.0609,0.0704,0.0617,0.0621,0.067,0.0861,0.0917,0.094,0.072,0.0723,0.0726,0.0866,0,-0.029,-0.0295,-0.0233,-0.023,-0.0232,-0.0139,-0.0086,0.0003,0.0086,0.0168,0.0301,0.0374,0.0434,0.0461,0.0562,0.0667,0.0749,0.0665,0.0825,0.083,0.0878,0.0963,0.0762,0.0876,0.0882,0.0885,0.0887,0,-0.0323,-0.0332,-0.0344,-0.0307,-0.0295,-0.0268,-0.0187,-0.0129,0.0026,0.0094,0.022,0.0317,0.0475,0.0498,0.0733,0.067,0.0764,0.085,0.0858,0.0933,0.0919,0.0851,0.0906,0.0915,0.0913,0.0911,0.0909,0,-0.0422,-0.0403,-0.0426,-0.0415,-0.0354,-0.0333,-0.0293,-0.0162,-0.0116,0.0043,0.0096,0.0299,0.0391,0.0562,0.0761,0.074,0.1005,0.0993,0.1139,0.1142,0.1019,0.1007,0.1154,0.1154,0.1153,0.1153,0.1153,0,-0.0489,-0.0507,-0.0484,-0.0504,-0.0535,-0.0442,-0.0429,-0.0349,-0.0227,-0.0168,0.0037,0.014,0.0411,0.06,0.0763,0.1022,0.1013,0.1175,0.1204,0.1006,0.0993,0.1061,0.1049,0.1158,0.1157,0.1156,0.1155,0,-0.0583,-0.0558,-0.0604,-0.0586,-0.0584,-0.0614,-0.0557,-0.0543,-0.0397,-0.0314,-0.0266,0.0028,0.0306,0.0574,0.0869,0.1024,0.125,0.1328,0.1078,0.1079,0.1326,0.1311,0.1521,0.1524,0.1527,0.153,0.1532,0,-0.0626,-0.0661,-0.0705,-0.0753,-0.0751,-0.0772,-0.0782,-0.0661,-0.0619,-0.0375,-0.0334,-0.003,0.0213,0.0699,0.0971,0.1287,0.1337,0.1326,0.1284,0.1368,0.1375,0.1354,0.1335,0.109,0.1088,0.1087,0.1086,0,-0.0732,-0.0747,-0.0799,-0.0919,-0.0964,-0.0998,-0.0981,-0.0961,-0.0788,-0.0666,-0.0416,-0.0197,0.0276,0.0609,0.1032,0.118,0.127,0.1316,0.1474,0.1049,0.0981,0.098,0.0972,0.1074,0.1075,0.1076,0.1077,0.1077,-0.0816,-0.09,-0.0983,-0.1097,-0.1159,-0.1199,-0.1207,-0.1155,-0.1072,-0.0879,-0.0585,-0.0281,0.0138,0.0671,0.0982,0.123,0.1269,0.1308,0.1304,0.1303,0.1249,0.1193,0.1313,0.1316,0.1318,0.132,0.1321,0,-0.0928,-0.1025,-0.1153,-0.1275,-0.1383,-0.1358,-0.1325,-0.1314,-0.1237,-0.1043,-0.0805,-0.0373,0.0045,0.049,0.0841,0.115,0.1065,0.1209,0.1021,0.1029,0.1036,0.0964,0.0956,0.0957,0.0958,0.0959,0,0,-0.0993,-0.1151,-0.1238,-0.146,-0.1534,-0.1613,-0.1588,-0.154,-0.1407,-0.122,-0.0999,-0.0652,-0.0035,0.018,0.0543,0.0746,0.0795,0.0737,0.0973,0.0703,0.0708,0.1018,0.0907,0,0,0,0,0]}],[{"header":{"parameterUnit":"m.s-1","parameterCategory":2,"la1":30.2991,"la2":30.254,"lo1":-89.0895,"lo2":-89.0444,"dy":0.0017,"dx":0.0017,"nx":28,"ny":28,"refTime":"2024-04-28T09:00:00:Z","depth":"4","parameterNumber":2,"parameterNumberName":"U-component_of_CURRENTS"},"data":[0,0,0,0,0,0,0,0,0,0,0,0,0,0,0,0,0,0,0,0,0,0,0,0,0,0,0,0,0,0,0,0,0,0,0,0,0,0,0,0,0,0,0,0,0,0,0,0,0,0,0,0,0,0,0,0,0,0,-0.1073,-0.1074,0,-0.1087,-0.1087,-0.1087,-0.1107,-0.1107,-0.1108,-0.1108,-0.1075,-0.1074,-0.1072,0,0,0,0,0,0,0,0,0,0,0,0,0,-0.0991,-0.0993,-0.1073,-0.1074,-0.1074,-0.1087,-0.1087,-0.1087,-0.1106,-0.1107,-0.1108,-0.1109,-0.1076,-0.1074,-0.1072,0,0,0,0,0,0,0,0,0,0,0,0,0,-0.1015,-0.0993,-0.1073,-0.1088,-0.109,-0.1087,-0.1087,-0.1087,-0.1106,-0.1107,-0.1108,-0.1109,-0.1076,-0.1074,-0.1072,-0.1039,0,0,-0.1065,-0.1064,0,0,0,0,0,0,0,0,-0.1014,-0.1018,-0.1085,-0.1087,-0.1089,-0.1099,-0.1046,-0.1069,-0.1106,-0.1096,-0.1108,-0.111,-0.108,-0.1078,-0.1074,-0.1037,-0.1036,-0.1065,-0.1063,-0.1063,-0.1062,0,0,0,0,0,0,0,-0.1012,-0.1017,-0.1075,-0.1086,-0.1088,-0.1069,-0.1074,-0.105,-0.1079,-0.1097,-0.11,-0.1106,-0.108,-0.1076,-0.1073,-0.1035,-0.1065,-0.1063,-0.1062,-0.1061,-0.101,-0.101,0,0,0,0,0,0,-0.102,-0.1016,-0.1075,-0.1076,-0.1057,-0.107,-0.1076,-0.1092,-0.1081,-0.1081,-0.1105,-0.1107,-0.108,-0.1076,-0.1072,-0.1107,-0.1063,-0.106,-0.1059,-0.101,-0.101,-0.101,0,0,0,0,0,0,-0.1019,-0.1026,-0.1074,-0.1048,-0.1053,-0.1072,-0.1089,-0.1092,-0.1112,-0.1088,-0.1087,-0.1127,-0.108,-0.1075,-0.1072,-0.1103,-0.1059,-0.1057,-0.101,-0.101,-0.101,-0.1128,0,0,0,0,0,0,-0.1016,-0.1025,-0.1047,-0.1049,-0.1055,-0.1095,-0.1089,-0.1092,-0.1115,-0.1118,-0.1105,-0.1102,-0.1081,-0.1076,-0.107,-0.1099,-0.1056,-0.101,-0.101,-0.101,-0.1124,-0.1132,-0.1138,0,0,0,0,0,-0.1013,-0.1041,-0.1048,-0.1056,-0.1083,-0.1096,-0.1098,-0.111,-0.1115,-0.113,-0.112,-0.1103,-0.1071,-0.1074,-0.1067,-0.1097,-0.101,-0.101,-0.101,-0.112,-0.113,-0.1138,0,0,0,0,0,0,-0.1018,-0.1045,-0.1054,-0.1089,-0.1102,-0.1101,-0.1121,-0.1123,-0.1126,-0.1133,-0.1106,-0.1102,-0.1106,-0.1076,-0.108,-0.1076,-0.1036,-0.1035,-0.1122,-0.1131,-0.1138,-0.1185,-0.1054,0,0,0,0,0,-0.1028,-0.1059,-0.1073,-0.1104,-0.1114,-0.1119,-0.1129,-0.1137,-0.1137,-0.1141,-0.113,-0.1111,-0.1094,-0.1096,-0.1069,-0.1073,-0.1084,-0.1081,-0.1089,-0.1096,-0.1126,-0.1164,-0.118,-0.101,-0.101,-0.101,0,0,-0.1039,-0.1059,-0.1077,-0.1107,-0.1118,-0.1144,-0.1128,-0.1154,-0.1182,-0.1134,-0.1166,-0.1134,-0.1097,-0.1103,-0.1102,-0.1089,-0.1149,-0.1096,-0.1102,-0.1129,-0.1166,-0.1184,-0.1199,-0.101,-0.101,-0.101,0,0,-0.1066,-0.1094,-0.1125,-0.1141,-0.1168,-0.1175,-0.1189,-0.1199,-0.1216,-0.1227,-0.1203,-0.12,-0.1167,-0.1164,-0.1153,-0.1181,-0.118,-0.1159,-0.125,-0.1287,-0.1303,-0.1317,-0.1365,-0.1382,-0.1173,-0.1173,-0.1173,0,-0.1078,-0.1121,-0.1134,-0.1165,-0.119,-0.1195,-0.123,-0.1246,-0.1255,-0.128,-0.1252,-0.124,-0.1203,-0.1237,-0.1244,-0.1205,-0.1229,-0.1228,-0.1304,-0.1317,-0.133,-0.1375,-0.1393,-0.1179,-0.1178,-0.1177,-0.1177,0,-0.1119,-0.1161,-0.1182,-0.1229,-0.1256,-0.1287,-0.1312,-0.1344,-0.1355,-0.1368,-0.14,-0.1355,-0.1359,-0.1335,-0.1299,-0.1366,-0.1356,-0.1307,-0.1297,-0.1356,-0.1397,-0.1414,-0.1187,-0.1185,-0.1183,-0.1182,0,0,-0.1124,-0.1197,-0.1206,-0.1243,-0.1295,-0.1319,-0.1384,-0.1441,-0.1499,-0.1498,-0.1568,-0.1532,-0.1524,-0.151,-0.1469,-0.1498,-0.1593,-0.1453,-0.1452,-0.1529,-0.1701,-0.159,-0.1597,-0.1567,-0.157,-0.1573,-0.17,0,-0.1153,-0.1218,-0.1256,-0.1331,-0.1366,-0.1412,-0.1473,-0.1529,-0.1567,-0.1633,-0.1627,-0.1654,-0.1588,-0.1592,-0.1619,-0.1589,-0.164,-0.1564,-0.1607,-0.1609,-0.1527,-0.1613,-0.1582,-0.1712,-0.1716,-0.1719,-0.1721,0,-0.1174,-0.122,-0.1289,-0.139,-0.1414,-0.1465,-0.1578,-0.1633,-0.173,-0.1766,-0.1818,-0.1808,-0.1857,-0.1775,-0.1825,-0.1784,-0.1769,-0.1746,-0.1749,-0.1622,-0.1529,-0.1633,-0.175,-0.1748,-0.1746,-0.1744,-0.1742,0,-0.1147,-0.1245,-0.1303,-0.1333,-0.1441,-0.1501,-0.1567,-0.1671,-0.1736,-0.1856,-0.1912,-0.1968,-0.1989,-0.1997,-0.1941,-0.1902,-0.1991,-0.1921,-0.1825,-0.1817,-0.1828,-0.1811,-0.1987,-0.1987,-0.1987,-0.1986,-0.1986,0,-0.1149,-0.1201,-0.1299,-0.133,-0.1421,-0.1502,-0.1613,-0.1695,-0.1819,-0.1899,-0.1974,-0.2025,-0.2044,-0.2075,-0.2028,-0.1984,-0.2067,-0.1878,-0.1852,-0.1871,-0.1858,-0.1841,-0.1822,-0.1991,-0.199,-0.1989,-0.1988,0,-0.11,-0.1166,-0.1231,-0.1353,-0.1403,-0.1459,-0.1621,-0.1688,-0.1832,-0.1942,-0.1983,-0.2095,-0.2133,-0.2147,-0.2156,-0.2075,-0.2047,-0.201,-0.2072,-0.204,-0.1837,-0.1823,-0.1942,-0.194,-0.1937,-0.1935,-0.1934,0,-0.1079,-0.1103,-0.1219,-0.1254,-0.1313,-0.1423,-0.1494,-0.1663,-0.1732,-0.1949,-0.1977,-0.2092,-0.2139,-0.2097,-0.211,-0.2085,-0.2028,-0.2033,-0.1907,-0.1876,-0.1838,-0.1827,-0.1816,-0.193,-0.193,-0.1929,-0.1929,0,-0.102,-0.1053,-0.1093,-0.1159,-0.1231,-0.1327,-0.1444,-0.1497,-0.1686,-0.1851,-0.193,-0.1968,-0.2026,-0.2019,-0.2028,-0.1984,-0.204,-0.2009,-0.2011,-0.1893,-0.1862,-0.1825,-0.1817,-0.1921,-0.1922,-0.1923,-0.1923,0,-0.0949,-0.0945,-0.0977,-0.1031,-0.1114,-0.117,-0.1277,-0.1373,-0.1478,-0.1732,-0.1748,-0.1879,-0.2001,-0.1969,-0.1962,-0.1937,-0.1885,-0.1807,-0.1819,-0.1828,-0.1724,-0.1664,-0.1674,0,0,0,0,0,-0.0869,-0.0834,-0.0855,-0.0882,-0.096,-0.1008,-0.1201,-0.1313,-0.1523,-0.1535,-0.1646,-0.1694,-0.1737,-0.1795,-0.1736,-0.188,-0.1867,-0.1804,-0.1777,-0.1878,-0.1887,-0.1769,0,0,0,0,0,0,-0.08,-0.0794,-0.0787,-0.0735,-0.0728,-0.0801,-0.0915,-0.1075,-0.111,-0.134,-0.1363,-0.1553,-0.1597,-0.1703,-0.167,-0.1692,-0.164,-0.1898,-0.1894,-0.1873,-0.1881,-0.1888,-0.177,0,0,0,0,0]},{"header":{"parameterUnit":"m.s-1","parameterCategory":2,"la1":30.2991,"la2":30.254,"lo1":-89.0895,"lo2":-89.0444,"dy":0.0017,"dx":0.0017,"nx":28,"ny":28,"refTime":"2024-04-28T09:00:00:Z","depth":"4","parameterNumber":3,"parameterNumberName":"V-component_of_CURRENTS"},"data":[0,0,0,0,0,0,0,0,0,0,0,0,0,0,0,0,0,0,0,0,0,0,0,0,0,0,0,0,0,0,0,0,0,0,0,0,0,0,0,0,0,0,0,0,0,0,0,0,0,0,0,0,0,0,0,0,0,0,-0.0112,-0.0111,0,-0.0015,-0.0014,-0.0013,0.0015,0.0014,0.0014,0.0013,0.0098,0.0101,0.0104,0,0,0,0,0,0,0,0,0,0,0,0,0,-0.0218,-0.0216,-0.0112,-0.0111,-0.011,-0.0015,-0.0014,-0.0013,0.0015,0.0014,0.0014,0.0013,0.0097,0.0101,0.0104,0,0,0,0,0,0,0,0,0,0,0,0,0,-0.0151,-0.0216,-0.0112,-0.0085,-0.0082,-0.0016,-0.0014,-0.0012,0.0015,0.0014,0.0013,0.0013,0.0096,0.01,0.0104,0.0149,0,0,0.0117,0.0119,0,0,0,0,0,0,0,0,-0.0155,-0.0147,-0.009,-0.0087,-0.0083,-0.0014,-0.002,0.0041,0.0015,-0.0021,0.0013,0.0012,0.006,0.0067,0.0089,0.0153,0.0157,0.0118,0.012,0.0122,0.0123,0,0,0,0,0,0,0,-0.0159,-0.015,-0.0073,-0.0089,-0.0085,-0.0059,-0.0051,-0.0008,0.0024,-0.0018,-0.0016,-0.0006,0.0062,0.0084,0.0091,0.0158,0.0118,0.0121,0.0124,0.0126,0.0265,0.0266,0,0,0,0,0,0,-0.0175,-0.0155,-0.0076,-0.007,-0.0123,-0.0057,-0.0048,-0.0035,0.0024,0.0032,-0.0005,-0.0005,0.0078,0.0086,0.0094,0.0133,0.0122,0.0126,0.0129,0.0264,0.0265,0.0266,0,0,0,0,0,0,-0.0177,-0.0168,-0.008,-0.0111,-0.0099,-0.0055,-0.004,-0.0032,-0.0011,0.0033,0.0041,0.0007,0.0077,0.0088,0.0136,0.0137,0.0128,0.0132,0.0262,0.0264,0.0266,0.0222,0,0,0,0,0,0,-0.0181,-0.017,-0.0166,-0.0112,-0.0097,-0.0041,-0.0039,-0.003,-0.0005,-0.0003,0.0046,0.0053,0.0077,0.013,0.0141,0.0142,0.0135,0.0261,0.0263,0.0265,0.0222,0.0222,0.0222,0,0,0,0,0,-0.0185,-0.0173,-0.0166,-0.0157,-0.0093,-0.004,-0.0029,-0.0001,-0.0003,0.0013,0.0046,0.0052,0.0151,0.0135,0.0147,0.015,0.026,0.0262,0.0265,0.0222,0.0222,0.0222,0,0,0,0,0,0,-0.0217,-0.0168,-0.0159,-0.0134,-0.0093,-0.0036,-0.002,-0.0001,0.004,0.0037,0.0072,0.0083,0.0124,0.0153,0.0134,0.0199,0.0205,0.021,0.0168,0.0168,0.0168,0.0138,0.0139,0,0,0,0,0,-0.0223,-0.0204,-0.0152,-0.0134,-0.0113,-0.0068,-0.0044,-0.0023,0.002,0.0036,0.0072,0.0111,0.0148,0.0168,0.021,0.025,0.0274,0.0261,0.026,0.026,0.0246,0.029,0.0292,0.0275,0.0275,0.0275,0,0,-0.0235,-0.0203,-0.0195,-0.014,-0.0107,-0.0085,-0.0055,-0.0018,-0.0005,0.004,0.0072,0.0115,0.0161,0.0201,0.0222,0.0222,0.0282,0.0263,0.0262,0.0248,0.0293,0.0294,0.0296,0.0276,0.0276,0.0276,0,0,-0.0243,-0.0216,-0.0203,-0.0173,-0.0124,-0.0093,-0.0086,-0.0025,-0.0003,0.0044,0.0071,0.0113,0.0181,0.0206,0.0227,0.0256,0.0282,0.0275,0.0247,0.029,0.0291,0.0292,0.0334,0.0339,0.0272,0.0272,0.0272,0,-0.0263,-0.0247,-0.0191,-0.0173,-0.0167,-0.0104,-0.0103,-0.0058,0.0008,0.0022,0.0046,0.0138,0.0177,0.021,0.0219,0.0251,0.0284,0.0237,0.0287,0.0288,0.029,0.0332,0.0339,0.027,0.027,0.0271,0.0271,0,-0.0262,-0.0259,-0.0248,-0.0217,-0.019,-0.0178,-0.0121,-0.009,-0.0056,-0.0014,0.0041,0.0111,0.0157,0.0184,0.0209,0.0241,0.0264,0.028,0.0276,0.0288,0.0334,0.0341,0.0268,0.0268,0.0269,0.0269,0,0,-0.0298,-0.0261,-0.0263,-0.028,-0.0226,-0.0212,-0.0181,-0.0144,-0.0139,-0.005,-0.0034,0.0049,0.0094,0.0122,0.0171,0.0211,0.0258,0.0247,0.025,0.027,0.0358,0.0339,0.0345,0.0286,0.0286,0.0287,0.0387,0,-0.033,-0.034,-0.03,-0.0327,-0.034,-0.0289,-0.0271,-0.0223,-0.017,-0.0126,-0.0037,0.0009,0.0071,0.0093,0.0148,0.0236,0.0274,0.0229,0.0359,0.0363,0.0329,0.0351,0.029,0.0392,0.0394,0.0395,0.0396,0,-0.0346,-0.0367,-0.04,-0.0419,-0.0417,-0.0413,-0.0404,-0.0376,-0.0288,-0.024,-0.0163,-0.0081,0.0008,0.0052,0.0207,0.018,0.0256,0.0324,0.033,0.0325,0.0356,0.038,0.0409,0.0408,0.0407,0.0406,0.0406,0,-0.0422,-0.0439,-0.0485,-0.049,-0.0483,-0.0493,-0.0484,-0.0418,-0.0407,-0.0311,-0.0279,-0.0149,-0.008,0.0043,0.0209,0.0208,0.0375,0.0391,0.0442,0.0443,0.0447,0.0445,0.0471,0.0471,0.0471,0.0471,0.047,0,-0.0479,-0.0518,-0.0531,-0.0563,-0.0627,-0.0579,-0.0612,-0.0572,-0.0514,-0.0494,-0.0347,-0.0295,-0.0079,0.0055,0.0191,0.035,0.0368,0.0435,0.0464,0.043,0.0425,0.0453,0.0449,0.0474,0.0473,0.0473,0.0472,0,-0.0538,-0.0543,-0.0613,-0.0646,-0.0662,-0.0706,-0.0714,-0.0729,-0.0647,-0.0615,-0.0585,-0.0397,-0.0205,0.0005,0.0219,0.0317,0.0469,0.0509,0.0462,0.0488,0.0511,0.0505,0.0575,0.0575,0.0575,0.0575,0.0575,0,-0.0564,-0.0606,-0.069,-0.0747,-0.0768,-0.0821,-0.0854,-0.0808,-0.0808,-0.0676,-0.0664,-0.0468,-0.0322,-0.0018,0.0193,0.0456,0.0479,0.055,0.0524,0.0498,0.0521,0.0514,0.0508,0.0575,0.0575,0.0575,0.0575,0,-0.0637,-0.0663,-0.0726,-0.0844,-0.0912,-0.0985,-0.1016,-0.102,-0.0938,-0.0873,-0.0716,-0.0519,-0.0302,-0.0038,0.0176,0.0356,0.0507,0.0551,0.0552,0.0528,0.05,0.0521,0.0514,0.0575,0.0575,0.0575,0.0575,0,-0.0689,-0.0756,-0.0837,-0.0933,-0.1034,-0.1103,-0.1112,-0.108,-0.1057,-0.0882,-0.0837,-0.0557,-0.0384,-0.0092,0.01,0.0291,0.0324,0.0358,0.0369,0.0372,0.0284,0.0217,0.0227,0,0,0,0,0,-0.0734,-0.0808,-0.0917,-0.103,-0.1127,-0.1172,-0.1199,-0.118,-0.1092,-0.1,-0.0907,-0.0693,-0.0351,-0.0195,-0.0011,0.0072,0.0333,0.0288,0.0371,0.0577,0.0577,0.0506,0,0,0,0,0,0,-0.0771,-0.0873,-0.0928,-0.1078,-0.1159,-0.1262,-0.1274,-0.1219,-0.1145,-0.1018,-0.0835,-0.0687,-0.036,-0.0461,-0.002,0.0042,0.011,0.0466,0.0469,0.0577,0.0577,0.0577,0.0504,0,0,0,0,0]}]]